Regional Weather Roundup
Issued by NWS Cleveland, OH

Home | Current Version | Previous Version | Text Only | Print | Product List | Glossary On
Versions: 1 2 3 4 5 6 7 8 9 10 11 12 13 14 15 16 17 18 19 20 21 22 23 24 25 26 27 28 29 30 31 32 33 34 35 36 37 38 39 40 41 42 43 44 45 46 47 48 49 50
000
ASUS41 KCLE 281210
RWRCLE
OHIO REGIONAL WEATHER ROUNDUP
NATIONAL WEATHER SERVICE CLEVELAND, OH
800 AM EDT THU MAY 28 2015

NOTE: "FAIR" INDICATES FEW OR NO CLOUDS BELOW 12,000 FEET WITH NO
SIGNIFICANT WEATHER AND/OR OBSTRUCTIONS TO VISIBILITY.

OHZ001>008-015>018-024>027-034-035-043-044-281300-
   NORTHWEST OHIO

CITY           SKY/WX    TMP DP  RH WIND       PRES   REMARKS
DEFIANCE       SUNNY     61  57  87 CALM      30.23R
FINDLAY        SUNNY     65  59  81 NE7       30.22R
TOLEDO EXPRESS SUNNY     61  57  87 N5        30.22R
TOLEDO EXEC    SUNNY     64  58  80 CALM      30.23R
LIMA           SUNNY     62  59  90 NE5       30.23R
$$

OHZ009>014-019>023-028>033-038-089-281300-
   NORTHEAST OHIO

CITY           SKY/WX    TMP DP  RH WIND       PRES   REMARKS
CLE-HOPKINS    MOSUNNY   64  55  72 NE7       30.25R
CLE-LAKEFRONT  MOSUNNY   64  57  78 NE3       30.23R
CUY CO. ARPT   PTSUNNY   64  61  88 NE7       30.24R
LORAIN-ELYRIA  MOSUNNY   63  57  81 E8        30.24R
ASHTABULA      MOSUNNY   61  55  81 CALM      30.25R
AKRON-CANTON   PTSUNNY   66  61  84 NE7       30.24R HAZE
WOOSTER        MOSUNNY   64  61  90 NE7       30.24R
MANSFIELD      MOSUNNY   63  61  93 NE7       30.24R
YOUNGSTOWN     PTSUNNY   64  58  80 N5        30.24R
$$

OHZ042-051>053-060>062-070>072-077>081-281300-
  SOUTHWEST OHIO

CITY           SKY/WX    TMP DP  RH WIND       PRES   REMARKS
CINC-COVINGTON FOG       64  63  96 CALM      30.21R VSB 1/4
CINC-LUNKEN    CLOUDY    65  63  93 CALM      30.21S
HAMILTON       CLOUDY    65  63  93 CALM      30.21R
DAYTON         FOG       65  64  97 N6        30.22R VSB 1/2
WRIGHT-PAT AFB PTSUNNY   65  63  93 CALM      30.21R
DAYTON GENERAL PTSUNNY   65  63  93 CALM      30.20S
WILMINGTON     PTSUNNY   64  61  90 S3        30.21S
$$

OHZ036-037-039>041-045>050-054>059-063>069-073>076-082>088-281300-
  CENTRAL AND SOUTHEAST OHIO

CITY           SKY/WX    TMP DP  RH WIND       PRES   REMARKS
COLUMBUS       CLOUDY    67  62  84 CALM      30.21R
OSU AIRPORT    PTSUNNY   66  62  87 CALM      30.22R
BOLTON FIELD   SUNNY     64  63  94 CALM      30.22
RICKENBACK AFB PTSUNNY   64  61  90 S3        30.21S
NEWARK         CLOUDY    64  61  90 CALM      30.22R
MARION         MOSUNNY   64  61  90 E8        30.22S FOG
LANCASTER      PTSUNNY   65  60  84 CALM      30.22R
ZANESVILLE     NOT AVBL
NEW PHILLY     PTSUNNY   64  61  90 CALM      30.24R
$$



USA.gov is the U.S. government's official web portal to all federal, state and local government web resources and services.